Wind_Speed
79 82 84 85 86 86 85 86 89 91 93 91 87 88 88 86 85 87 88 90 92 94 96 97 98 100 102
83 84 85 86 87 89 90 93 93 94 91 90 89 89 90 92 93 96 98 99 99 100 101 102 104 105 108
89 86 85 88 89 91 91 92 90 92 92 91 96 96 99 99 101 102 101 101 104 105 106 108 108 109 110
78 77 83 86 86 86 85 89 91 96 99 101 104 106 108 107 104 105 108 108 107 106 105 104 103 104 106
75 78 82 80 81 84 87 90 98 103 105 109 109 111 114 113 112 109 102 97 94 94 93 93 93 94 94
74 74 76 80 85 90 95 98 103 108 107 110 114 118 117 111 104 98 93 88 83 80 80 83 85 85 85
73 79 84 89 93 98 101 103 105 108 107 112 115 114 105 99 92 87 84 77 74 72 70 72 74 76 78
82 87 91 95 97 99 100 103 108 114 109 111 111 102 95 83 79 77 74 70 68 66 64 64 66 67 69
90 92 95 96 98 101 104 108 111 112 101 98 96 87 82 71 68 71 69 64 60 61 57 54 56 56 58
92 92 95 98 101 105 108 110 104 99 90 85 82 72 70 69 63 64 62 55 54 52 50 47 44 45 49
93 96 99 102 106 108 102 95 89 83 75 69 69 64 61 60 57 54 54 47 44 42 42 41 41 40 41
97 100 104 105 102 93 87 80 71 64 63 59 59 56 54 51 48 48 43 46 39 36 33 33 34 34 34
101 103 99 91 85 79 68 63 59 51 51 53 51 48 45 43 42 42 40 37 37 33 31 28 27 28 29
95 87 81 75 66 61 58 52 49 47 45 42 41 41 41 36 38 35 35 34 31 30 27 25 25 25 23
78 73 66 59 53 50 48 48 47 46 42 34 32 35 38 41 34 35 33 31 31 27 25 23 20 20 20
65 58 53 48 44 44 45 44 39 35 35 34 35 30 26 29 36 29 25 26 29 27 25 23 23 18 19
51 47 43 42 43 42 41 35 30 30 31 33 32 34 32 26 26 29 26 21 17 20 23 20 18 20 19
Wind_Direction
285 286 287 288 289 290 292 292 291 292 292 290 289 287 286 286 285 283 282 280 278 276 274 273 270 268 267
284 285 286 287 289 291 292 293 293 291 289 290 289 288 287 286 286 286 285 283 281 280 278 276 272 269 267
282 286 288 290 291 292 292 292 292 292 292 291 290 291 291 291 290 289 289 288 285 282 278 275 273 271 269
287 286 287 289 289 290 292 293 294 294 293 295 296 297 295 293 294 293 289 286 284 282 280 278 275 272 269
284 286 286 287 290 292 292 292 293 294 298 298 297 296 295 297 294 291 290 288 285 283 281 277 273 271 269
287 287 290 292 293 294 295 296 296 297 298 298 297 297 298 297 295 295 293 289 286 283 280 276 273 270 268
292 294 294 295 294 295 296 297 296 295 296 298 299 299 299 297 298 296 293 293 290 286 281 276 273 272 269
292 293 293 292 294 295 295 296 298 298 301 303 300 299 298 299 298 297 295 295 293 289 283 279 275 272 269
292 292 294 295 295 296 298 299 300 302 303 300 297 299 299 301 301 300 300 300 295 291 288 283 278 273 269
293 294 294 296 298 300 301 302 302 302 301 300 299 301 304 303 304 302 302 303 299 296 294 290 283 276 273
294 296 299 301 302 303 303 302 302 301 301 300 300 302 303 302 305 302 304 303 300 298 294 289 285 281 275
299 300 301 303 303 303 302 301 301 301 302 301 301 305 304 302 304 304 306 306 306 300 297 291 283 276 272
301 301 302 303 302 303 302 302 302 302 301 303 304 304 305 308 308 308 310 310 311 309 304 298 292 286 276
303 303 303 304 304 303 302 302 302 304 306 304 305 306 308 308 310 311 313 313 313 314 313 306 296 288 281
304 304 305 305 304 303 305 306 309 310 309 307 309 312 316 317 320 321 322 324 320 318 313 310 304 299 290
305 307 307 306 307 307 308 310 311 308 311 315 318 320 324 322 319 326 329 326 321 321 318 317 310 302 293
308 308 308 309 310 312 311 311 309 313 317 319 324 325 329 334 328 330 332 331 331 327 322 314 307 304 299
Height
10471 10464 10459 10455 10451 10445 10441 10435 10427 10419 10412 10409 10405 10399 10395 10390 10386 10383 10379 10375 10371 10368 10363 10361 10358 10358 10356
10454 10447 10442 10435 10431 10424 10415 10407 10401 10393 10385 10383 10376 10370 10365 10360 10357 10351 10343 10338 10334 10331 10326 10323 10317 10314 10312
10434 10430 10425 10416 10410 10400 10393 10383 10375 10365 10359 10355 10347 10341 10334 10327 10320 10312 10308 10304 10299 10291 10283 10276 10273 10270 10267
10417 10411 10405 10398 10392 10383 10373 10361 10353 10338 10331 10323 10314 10303 10292 10286 10282 10278 10270 10262 10255 10246 10238 10232 10226 10222 10217
10398 10392 10387 10378 10371 10362 10353 10344 10329 10313 10309 10292 10281 10268 10253 10249 10242 10235 10231 10223 10213 10202 10194 10187 10182 10176 10175
10378 10371 10364 10357 10349 10338 10326 10318 10307 10285 10283 10269 10251 10234 10223 10212 10202 10196 10187 10180 10174 10168 10158 10149 10143 10140 10140
10359 10349 10343 10332 10324 10312 10300 10292 10278 10264 10261 10250 10222 10205 10194 10181 10175 10166 10154 10148 10137 10132 10127 10119 10114 10110 10109
10339 10330 10321 10310 10302 10292 10281 10268 10251 10230 10232 10218 10188 10177 10164 10161 10151 10139 10129 10121 10112 10103 10097 10091 10087 10084 10083
10314 10306 10296 10286 10277 10267 10252 10240 10226 10204 10201 10184 10161 10156 10140 10137 10129 10115 10105 10097 10088 10077 10073 10068 10062 10060 10057
10292 10282 10272 10260 10249 10237 10224 10210 10197 10182 10172 10157 10137 10136 10124 10110 10110 10094 10085 10080 10067 10060 10054 10049 10044 10040 10037
10266 10254 10242 10231 10220 10208 10195 10181 10170 10158 10148 10137 10122 10116 10111 10097 10090 10079 10069 10063 10054 10046 10041 10035 10029 10025 10023
10242 10229 10216 10205 10192 10179 10169 10156 10149 10140 10127 10119 10109 10102 10092 10084 10075 10066 10060 10047 10042 10034 10027 10022 10017 10012 10009
10218 10206 10194 10182 10169 10155 10147 10136 10130 10125 10115 10105 10095 10088 10080 10072 10064 10055 10047 10040 10031 10024 10018 10013 10007 10003 9999
10193 10181 10170 10160 10149 10137 10127 10120 10113 10109 10103 10093 10085 10076 10068 10064 10054 10047 10038 10030 10025 10017 10011 10005 10000 9995 9992
10169 10159 10150 10141 10133 10121 10113 10106 10099 10090 10085 10084 10076 10068 10059 10048 10044 10037 10030 10023 10014 10009 10003 9998 9993 9988 9985
10151 10142 10134 10125 10117 10110 10102 10094 10088 10082 10075 10068 10062 10058 10055 10047 10034 10032 10025 10017 10008 10002 9996 9992 9987 9984 9980
10136 10128 10120 10113 10105 10098 10091 10086 10080 10074 10067 10061 10054 10046 10041 10038 10029 10021 10015 10010 10004 9996 9989 9985 9982 9977 9974